Weather History for Ogden Hill AFB, UT

Change the Weather History Date:

Tuesday, January 15, 2013

  Actual Average Record
Temperature  
Mean Temperature 12 °F -  
Max Temperature 16 °F 34 °F 46 °F (1999)
Min Temperature 8 °F 22 °F 0 °F (2007)
Degree Days  
Heating Degree Days 53    
Moisture  
Dew Point 6 °F    
Average Humidity 77    
Maximum Humidity 85    
Minimum Humidity 68    
Precipitation  
Precipitation 0.00 in - - ()
Sea Level Pressure  
Sea Level Pressure 30.58 in    
Wind  
Wind Speed 3 mph (SW)    
Max Wind Speed 6 mph    
Max Gust Speed -    
Visibility 9 miles    
Events Snow    
Averages and records for this station are not official NWS values.
T = Trace of Precipitation, MM = Missing Value Source: NWS Daily Summary

Daily Weather History Graph

Daily Weather History Graph

Search for Another Location

Airport:

Trip Planner

Search our weather history database for the weather conditions in past years. The results will help you decide how hot, cold, wet, or windy it might be!

Date:

Astronomy

Jan. 15, 2013 Rise Set
Actual Time 7:50 AM MST 5:24 PM MST
Civil Twilight 7:20 AM MST 5:54 PM MST
Nautical Twilight 6:46 AM MST 6:28 PM MST
Astronomical Twilight 6:13 AM MST 7:01 PM MST
Moon 9:55 AM MST (1/15) 10:21 PM MST (1/15)
Length of Visible Light 10h 34m
Length of Day
9h 33m
Waxing Crescent, 20% of the Moon is Illuminated
Jan 15
Waxing Crescent
Jan 18
First Quarter
Jan 26
Full
Feb 3
Last Quarter
Feb 10
New

Hourly Weather History & Observations

Time (MST) Temp. Windchill Dew Point Humidity Pressure Visibility Wind Dir Wind Speed Gust Speed Precip Events Conditions
12:22 AM 8.6 °F 0.1 °F 3.2 °F 79% 30.37 in 10.0 mi South 4.6 mph - N/A Snow Light Snow
12:34 AM 8.6 °F 2.0 °F 3.2 °F 79% 30.37 in 10.0 mi SE 3.5 mph - N/A   Overcast
12:58 AM 8.1 °F 1.4 °F 3.2 °F 81% 30.57 in 10.0 mi ESE 3.5 mph - 0.00 in   Overcast
1:58 AM 8.4 °F -0.1 °F 3.4 °F 80% 30.60 in 10.0 mi SE 4.6 mph - N/A   Overcast
2:33 AM 8.6 °F - 3.2 °F 79% 30.41 in 10.0 mi SE 2.3 mph - N/A   Overcast
2:43 AM 8.6 °F - 3.2 °F 79% 30.41 in 10.0 mi East 2.3 mph - N/A   Overcast
2:58 AM 8.6 °F - 2.8 °F 77% 30.61 in 10.0 mi NNW 1.2 mph - N/A   Overcast
3:21 AM 8.6 °F - 3.2 °F 79% 30.41 in 10.0 mi WSW 1.2 mph - N/A Snow Light Snow
3:31 AM 8.6 °F - 3.2 °F 79% 30.42 in 10.0 mi WSW 2.3 mph - N/A   Overcast
3:58 AM 9.0 °F - 3.9 °F 80% 30.63 in 10.0 mi Calm Calm - 0.00 in   Overcast
4:00 AM 8.6 °F - 3.2 °F 79% 30.42 in 10.0 mi North - - N/A Snow Light Snow
4:15 AM 8.6 °F - 3.2 °F 79% 30.41 in 9.0 mi SE 1.2 mph - N/A Snow Light Snow
4:33 AM 8.6 °F - 3.2 °F 79% 30.41 in 9.0 mi SE 2.3 mph - N/A   Overcast
4:58 AM 8.6 °F - 3.7 °F 81% 30.62 in 10.0 mi Calm Calm - 0.00 in   Overcast
5:31 AM 8.6 °F - 3.2 °F 79% 30.44 in 10.0 mi Calm Calm - N/A Snow Light Snow
5:58 AM 8.6 °F - 3.9 °F 81% 30.66 in 10.0 mi WSW 1.2 mph - 0.00 in Snow Light Snow
5:59 AM 8.6 °F - 3.2 °F 79% 30.44 in 10.0 mi WSW 1.2 mph - N/A   Overcast
6:08 AM 8.6 °F - 5.0 °F 85% 30.45 in 10.0 mi Calm Calm - N/A Snow Light Snow
6:44 AM 8.6 °F - 5.0 °F 85% 30.44 in 10.0 mi Calm Calm - N/A   Overcast
6:58 AM 8.8 °F - 4.1 °F 81% 30.65 in 10.0 mi ESE 2.3 mph - 0.00 in   Overcast
7:58 AM 9.1 °F - 3.9 °F 79% 30.70 in 10.0 mi ESE 2.3 mph - N/A   Overcast
8:38 AM 10.4 °F 4.0 °F 3.2 °F 73% 30.49 in 10.0 mi East 3.5 mph - N/A   Overcast
8:58 AM 10.0 °F - 4.6 °F 79% 30.73 in 10.0 mi Calm Calm - N/A   Overcast
9:08 AM 10.4 °F - 5.0 °F 79% 30.51 in 10.0 mi South 2.3 mph - N/A   Overcast
9:22 AM 10.4 °F - 5.0 °F 79% 30.51 in 10.0 mi SSW 2.3 mph - N/A   Overcast
9:58 AM 12.0 °F 4.1 °F 5.5 °F 75% 30.71 in 10.0 mi SSW 4.6 mph - N/A   Overcast
10:58 AM 12.0 °F - 5.5 °F 75% 30.71 in 10.0 mi South 2.3 mph - N/A   Mostly Cloudy
11:58 AM 13.8 °F - 5.5 °F 70% 30.69 in 10.0 mi Calm Calm - N/A   Mostly Cloudy
12:58 PM 15.6 °F 10.0 °F 6.8 °F 68% 30.68 in 6.0 mi West 3.5 mph - N/A   Haze
1:48 PM 15.8 °F 8.6 °F 6.8 °F 68% 30.50 in 5.0 mi WSW 4.6 mph - N/A Snow Light Snow
1:58 PM 16.2 °F 10.6 °F 7.2 °F 68% 30.69 in 5.0 mi WSW 3.5 mph - 0.00 in Snow Light Snow
2:17 PM 15.8 °F 8.6 °F 6.8 °F 68% 30.50 in 5.0 mi WSW 4.6 mph - N/A   Haze
2:51 PM 15.8 °F 10.2 °F 6.8 °F 68% 30.51 in 5.0 mi WSW 3.5 mph - N/A Snow Light Snow
2:58 PM 15.6 °F 10.0 °F 7.2 °F 69% 30.70 in 5.0 mi WSW 3.5 mph - 0.00 in Snow Light Snow
3:18 PM 15.8 °F - 6.8 °F 68% 30.51 in 7.0 mi Calm Calm - N/A   Mostly Cloudy
3:58 PM 15.4 °F - 7.3 °F 70% 30.71 in 7.0 mi West 1.2 mph - 0.00 in   Mostly Cloudy
4:58 PM 15.8 °F 10.2 °F 8.6 °F 73% 30.73 in 10.0 mi NNW 3.5 mph - N/A   Overcast
5:07 PM 15.8 °F 8.6 °F 8.6 °F 73% 30.54 in 10.0 mi NNW 4.6 mph - N/A   Mostly Cloudy
5:17 PM 15.8 °F 8.6 °F 8.6 °F 73% 30.54 in 10.0 mi NW 4.6 mph - N/A   Mostly Cloudy
5:58 PM 14.0 °F 6.5 °F 8.6 °F 79% 30.74 in 10.0 mi NNW 4.6 mph - N/A   Overcast
6:58 PM 14.2 °F 6.7 °F 8.8 °F 79% 30.76 in 10.0 mi North 4.6 mph - N/A   Overcast
7:32 PM 14.0 °F 6.5 °F 8.6 °F 79% 30.57 in 10.0 mi North 4.6 mph - N/A   Overcast
7:58 PM 14.4 °F - 8.4 °F 77% 30.76 in 10.0 mi NNW 2.3 mph - N/A   Overcast
8:58 PM 14.2 °F - 8.1 °F 77% 30.77 in 10.0 mi North 2.3 mph - N/A   Overcast
9:38 PM 14.0 °F - 8.6 °F 79% 30.58 in 10.0 mi NNE 2.3 mph - N/A Snow Light Snow
9:58 PM 14.2 °F - 8.2 °F 77% 30.76 in 10.0 mi Calm Calm - 0.00 in Snow Light Snow
10:01 PM 14.0 °F - 8.6 °F 79% 30.58 in 10.0 mi Calm Calm - N/A   Overcast
10:58 PM 14.2 °F - 9.0 °F 80% 30.77 in 10.0 mi Calm Calm - 0.00 in   Overcast
11:58 PM 14.2 °F 5.3 °F 9.1 °F 80% 30.76 in 10.0 mi SE 5.8 mph - N/A   Overcast